Time,TemperatureF,DewpointF,PressureIn,WindDirection,WindDirectionDegrees,WindSpeedMPH,WindSpeedGustMPH,Humidity,HourlyPrecipIn,Conditions,Clouds,dailyrainin,SoftwareType,DateUTC
2013-04-29 00:03:00,54.0,53.0,30.01,ESE,117,0.0,0.0,98,0.00,,,1.08,,2013-04-29 04:03:00,
2013-04-29 00:13:00,54.0,53.0,30.01,ESE,117,0.0,0.0,98,0.00,,,1.08,,2013-04-29 04:13:00,
2013-04-29 00:23:00,54.0,53.0,30.01,ESE,117,0.0,0.0,98,0.00,,,1.08,,2013-04-29 04:23:00,
2013-04-29 00:33:00,54.0,53.0,30.01,ESE,117,0.0,0.0,98,0.00,,,1.08,,2013-04-29 04:33:00,
2013-04-29 00:43:00,54.0,53.0,30.01,ESE,117,0.0,0.0,98,0.00,,,1.08,,2013-04-29 04:43:00,
2013-04-29 00:52:00,54.0,53.0,30.02,ESE,117,0.0,1.0,98,0.00,,,1.08,,2013-04-29 04:52:00,
2013-04-29 01:02:00,54.0,53.0,30.01,ESE,117,0.0,0.0,98,0.00,,,1.08,,2013-04-29 05:02:00,
2013-04-29 01:12:00,54.0,53.0,30.01,ESE,117,0.0,0.0,98,0.00,,,1.08,,2013-04-29 05:12:00,
2013-04-29 01:22:00,55.0,54.0,30.02,West,265,0.0,4.0,98,0.01,,,1.09,,2013-04-29 05:22:00,
2013-04-29 01:32:00,55.0,54.0,30.01,West,265,0.0,1.0,98,0.01,,,1.09,,2013-04-29 05:32:00,
2013-04-29 01:42:00,55.0,54.0,30.01,West,265,0.0,1.0,98,0.01,,,1.09,,2013-04-29 05:42:00,
2013-04-29 01:52:00,55.0,54.0,30.01,West,265,0.0,2.0,98,0.02,,,1.10,,2013-04-29 05:52:00,
2013-04-29 02:02:00,55.0,54.0,30.02,West,265,0.0,0.0,98,0.03,,,1.11,,2013-04-29 06:02:00,
2013-04-29 02:12:00,55.0,54.0,30.02,West,265,0.0,0.0,98,0.03,,,1.11,,2013-04-29 06:12:00,
2013-04-29 02:22:00,55.0,54.0,30.02,West,265,0.0,1.0,98,0.03,,,1.09,,2013-04-29 06:22:00,
2013-04-29 02:32:00,55.0,54.0,30.01,West,265,0.0,0.0,98,0.04,,,1.10,,2013-04-29 06:32:00,
2013-04-29 02:42:00,55.0,54.0,30.01,West,265,0.0,0.0,98,0.04,,,1.10,,2013-04-29 06:42:00,
2013-04-29 02:52:00,55.0,54.0,30.00,West,265,0.0,0.0,98,0.03,,,1.10,,2013-04-29 06:52:00,
2013-04-29 03:01:00,55.0,54.0,30.01,West,265,1.0,2.0,98,0.01,,,1.10,,2013-04-29 07:01:00,
2013-04-29 03:11:00,55.0,54.0,30.01,West,265,1.0,2.0,98,0.01,,,1.10,,2013-04-29 07:11:00,
2013-04-29 03:22:00,55.0,54.0,29.99,WSW,238,0.0,2.0,98,0.02,,,1.10,,2013-04-29 07:22:00,
2013-04-29 03:32:00,55.0,54.0,29.98,WSW,238,0.0,0.0,98,0.01,,,1.10,,2013-04-29 07:32:00,
2013-04-29 03:42:00,55.0,54.0,29.98,WSW,238,0.0,0.0,98,0.01,,,1.10,,2013-04-29 07:42:00,
2013-04-29 03:52:00,55.0,54.0,29.99,WSW,238,0.0,0.0,98,0.01,,,1.10,,2013-04-29 07:52:00,
2013-04-29 04:03:00,55.0,54.0,29.98,WSW,238,0.0,0.0,98,0.01,,,1.10,,2013-04-29 08:03:00,
2013-04-29 04:11:00,55.0,54.0,29.98,WSW,238,0.0,0.0,98,0.01,,,1.10,,2013-04-29 08:11:00,
2013-04-29 04:22:00,55.0,54.0,29.99,WSW,238,0.0,1.0,98,0.00,,,1.09,,2013-04-29 08:22:00,
2013-04-29 04:32:00,55.0,54.0,29.99,WSW,238,0.0,1.0,98,0.00,,,1.09,,2013-04-29 08:32:00,
2013-04-29 04:42:00,55.0,54.0,29.99,WSW,238,0.0,1.0,98,0.00,,,1.09,,2013-04-29 08:42:00,
2013-04-29 04:52:00,55.0,54.0,29.97,WSW,238,0.0,2.0,98,0.00,,,1.09,,2013-04-29 08:52:00,
2013-04-29 05:01:00,55.0,54.0,29.97,WSW,238,0.0,0.0,98,0.00,,,1.09,,2013-04-29 09:01:00,
2013-04-29 05:12:00,55.0,54.0,29.97,WSW,238,0.0,0.0,98,0.00,,,1.09,,2013-04-29 09:12:00,
2013-04-29 05:21:00,55.0,54.0,29.97,WSW,238,0.0,0.0,98,0.00,,,1.08,,2013-04-29 09:21:00,
2013-04-29 05:33:00,55.0,54.0,29.97,WSW,238,0.0,0.0,98,0.00,,,1.08,,2013-04-29 09:33:00,
2013-04-29 05:42:00,55.0,54.0,29.97,WSW,238,0.0,0.0,98,0.00,,,1.08,,2013-04-29 09:42:00,
2013-04-29 05:53:00,55.0,54.0,29.96,WSW,238,0.0,0.0,98,0.00,,,1.08,,2013-04-29 09:53:00,
2013-04-29 06:02:00,55.0,54.0,29.96,WSW,238,0.0,0.0,98,0.00,,,1.08,,2013-04-29 10:02:00,
2013-04-29 06:12:00,55.0,54.0,29.96,WSW,238,0.0,0.0,98,0.00,,,1.08,,2013-04-29 10:12:00,
2013-04-29 06:23:00,55.0,54.0,29.97,WSW,238,0.0,0.0,98,0.00,,,1.08,,2013-04-29 10:23:00,
2013-04-29 06:32:00,55.0,54.0,29.97,WSW,238,0.0,0.0,98,0.00,,,1.08,,2013-04-29 10:32:00,
2013-04-29 06:42:00,55.0,54.0,29.97,WSW,238,0.0,0.0,98,0.00,,,1.08,,2013-04-29 10:42:00,
2013-04-29 06:52:00,55.0,54.0,29.97,WSW,238,0.0,0.0,98,0.00,,,1.08,,2013-04-29 10:52:00,
2013-04-29 07:03:00,55.0,54.0,29.98,WSW,238,0.0,0.0,98,0.00,,,1.08,,2013-04-29 11:03:00,
2013-04-29 07:12:00,55.0,54.0,29.98,WSW,238,0.0,0.0,98,0.00,,,1.08,,2013-04-29 11:12:00,
2013-04-29 07:22:00,55.0,54.0,29.98,WSW,238,0.0,0.0,98,0.00,,,1.02,,2013-04-29 11:22:00,
2013-04-29 07:32:00,55.0,54.0,29.99,WSW,238,0.0,0.0,98,0.00,,,1.02,,2013-04-29 11:32:00,
2013-04-29 07:42:00,55.0,54.0,29.99,WSW,238,0.0,0.0,98,0.00,,,1.02,,2013-04-29 11:42:00,
2013-04-29 07:52:00,55.0,54.0,29.99,WSW,238,0.0,0.0,98,0.01,,,1.03,,2013-04-29 11:52:00,
2013-04-29 08:01:00,56.0,55.0,29.99,WSW,238,0.0,0.0,98,0.01,,,1.03,,2013-04-29 12:01:00,
2013-04-29 08:12:00,56.0,55.0,29.99,WSW,238,0.0,0.0,98,0.01,,,1.03,,2013-04-29 12:12:00,
2013-04-29 08:22:00,56.0,55.0,30.00,WSW,238,0.0,0.0,98,0.01,,,0.99,,2013-04-29 12:22:00,
2013-04-29 08:32:00,56.0,55.0,30.00,WSW,238,0.0,1.0,98,0.01,,,0.99,,2013-04-29 12:32:00,
2013-04-29 08:42:00,56.0,55.0,30.00,WSW,238,0.0,1.0,98,0.01,,,0.99,,2013-04-29 12:42:00,
2013-04-29 08:52:00,56.0,55.0,30.00,WSW,238,0.0,1.0,98,0.00,,,0.99,,2013-04-29 12:52:00,
2013-04-29 09:01:00,57.0,56.0,30.01,SW,232,0.0,2.0,98,0.00,,,0.99,,2013-04-29 13:01:00,
2013-04-29 09:11:00,57.0,56.0,30.01,SW,232,0.0,2.0,98,0.00,,,0.99,,2013-04-29 13:11:00,
2013-04-29 09:21:00,57.0,56.0,30.01,SW,232,0.0,2.0,98,0.00,,,0.82,,2013-04-29 13:21:00,
2013-04-29 09:32:00,58.0,57.0,30.00,SSE,152,0.0,3.0,98,0.00,,,0.82,,2013-04-29 13:32:00,
2013-04-29 09:42:00,58.0,57.0,30.00,SSE,152,0.0,3.0,98,0.00,,,0.82,,2013-04-29 13:42:00,
2013-04-29 09:52:00,58.0,57.0,30.01,SSE,153,0.0,2.0,98,0.00,,,0.82,,2013-04-29 13:52:00,
2013-04-29 10:02:00,58.0,57.0,30.01,SSE,153,0.0,2.0,98,0.00,,,0.82,,2013-04-29 14:02:00,
2013-04-29 10:12:00,58.0,57.0,30.01,SSE,153,0.0,2.0,98,0.00,,,0.82,,2013-04-29 14:12:00,
2013-04-29 10:21:00,59.0,58.0,30.01,SSE,156,1.0,4.0,98,0.00,,,0.81,,2013-04-29 14:21:00,
2013-04-29 10:32:00,60.0,59.0,30.01,South,188,2.0,5.0,98,0.00,,,0.81,,2013-04-29 14:32:00,
2013-04-29 10:42:00,60.0,59.0,30.01,South,188,2.0,5.0,98,0.00,,,0.81,,2013-04-29 14:42:00,
2013-04-29 10:52:00,60.0,59.0,30.01,South,182,5.0,8.0,97,0.00,,,0.81,,2013-04-29 14:52:00,
2013-04-29 11:01:00,60.0,58.0,30.01,SW,224,2.0,7.0,94,0.00,,,0.81,,2013-04-29 15:01:00,
2013-04-29 11:12:00,60.0,58.0,30.01,SW,224,2.0,7.0,94,0.00,,,0.81,,2013-04-29 15:12:00,
2013-04-29 11:22:00,61.0,59.0,30.01,SSW,200,2.0,9.0,94,0.00,,,0.71,,2013-04-29 15:22:00,
2013-04-29 11:33:00,62.0,60.0,30.01,SSW,194,0.0,6.0,92,0.00,,,0.71,,2013-04-29 15:33:00,
2013-04-29 11:42:00,62.0,60.0,30.01,SSW,194,0.0,6.0,92,0.00,,,0.71,,2013-04-29 15:42:00,
2013-04-29 11:53:00,62.0,59.0,30.01,SW,228,2.0,6.0,90,0.00,,,0.71,,2013-04-29 15:53:00,
2013-04-29 12:03:00,63.0,60.0,30.01,WNW,282,2.0,7.0,90,0.00,,,0.71,,2013-04-29 16:03:00,
2013-04-29 12:12:00,63.0,60.0,30.01,WNW,282,2.0,7.0,90,0.00,,,0.71,,2013-04-29 16:12:00,
2013-04-29 12:23:00,63.0,60.0,30.01,WSW,254,3.0,7.0,90,0.00,,,0.66,,2013-04-29 16:23:00,
2013-04-29 12:33:00,64.0,60.0,30.01,WSW,247,2.0,7.0,88,0.00,,,0.66,,2013-04-29 16:33:00,
2013-04-29 12:42:00,64.0,60.0,30.01,WSW,247,2.0,7.0,88,0.00,,,0.66,,2013-04-29 16:42:00,
2013-04-29 12:52:00,64.0,60.0,30.00,WSW,254,3.0,7.0,86,0.00,,,0.66,,2013-04-29 16:52:00,
2013-04-29 13:02:00,65.0,60.0,30.00,West,275,1.0,7.0,85,0.00,,,0.66,,2013-04-29 17:02:00,
2013-04-29 13:12:00,65.0,60.0,30.00,West,275,1.0,7.0,85,0.00,,,0.66,,2013-04-29 17:12:00,
2013-04-29 13:22:00,67.0,61.0,30.00,WNW,286,4.0,10.0,81,0.00,,,0.56,,2013-04-29 17:22:00,
2013-04-29 13:32:00,67.0,61.0,29.99,SW,223,3.0,8.0,81,0.00,,,0.56,,2013-04-29 17:32:00,
2013-04-29 13:42:00,67.0,61.0,29.99,SW,223,3.0,8.0,81,0.00,,,0.56,,2013-04-29 17:42:00,
2013-04-29 13:52:00,67.0,60.0,29.99,SW,220,5.0,8.0,78,0.00,,,0.56,,2013-04-29 17:52:00,
2013-04-29 14:01:00,68.0,61.0,29.98,West,274,3.0,7.0,78,0.00,,,0.56,,2013-04-29 18:01:00,
2013-04-29 14:13:00,68.0,61.0,29.98,West,274,3.0,7.0,78,0.00,,,0.56,,2013-04-29 18:13:00,
2013-04-29 14:22:00,70.0,61.0,29.98,NW,308,3.0,9.0,73,0.00,,,0.55,,2013-04-29 18:22:00,
2013-04-29 14:32:00,70.0,60.0,29.97,West,263,3.0,9.0,70,0.00,,,0.55,,2013-04-29 18:32:00,
2013-04-29 14:42:00,70.0,60.0,29.97,West,263,3.0,9.0,70,0.00,,,0.55,,2013-04-29 18:42:00,
2013-04-29 14:52:00,70.0,60.0,29.96,West,273,1.0,7.0,71,0.00,,,0.55,,2013-04-29 18:52:00,
2013-04-29 15:01:00,71.0,61.0,29.96,West,263,3.0,9.0,70,0.00,,,0.55,,2013-04-29 19:01:00,
2013-04-29 15:12:00,71.0,61.0,29.96,West,263,3.0,9.0,70,0.00,,,0.55,,2013-04-29 19:12:00,
2013-04-29 15:22:00,71.0,62.0,29.95,West,274,2.0,8.0,72,0.00,,,0.53,,2013-04-29 19:22:00,
2013-04-29 15:32:00,72.0,62.0,29.94,West,271,4.0,10.0,70,0.00,,,0.53,,2013-04-29 19:32:00,
2013-04-29 15:42:00,72.0,62.0,29.94,West,271,4.0,10.0,70,0.00,,,0.53,,2013-04-29 19:42:00,
2013-04-29 15:52:00,73.0,61.0,29.93,SW,236,5.0,11.0,65,0.00,,,0.53,,2013-04-29 19:52:00,
2013-04-29 16:02:00,73.0,61.0,29.92,WNW,303,5.0,10.0,65,0.00,,,0.53,,2013-04-29 20:02:00,
2013-04-29 16:12:00,73.0,61.0,29.92,WNW,303,5.0,10.0,65,0.00,,,0.53,,2013-04-29 20:12:00,
2013-04-29 16:21:00,73.0,60.0,29.92,WNW,294,4.0,12.0,64,0.00,,,0.43,,2013-04-29 20:21:00,
2013-04-29 16:32:00,74.0,61.0,29.91,SW,235,5.0,10.0,63,0.00,,,0.43,,2013-04-29 20:32:00,
2013-04-29 16:42:00,74.0,61.0,29.91,SW,235,5.0,10.0,63,0.00,,,0.43,,2013-04-29 20:42:00,
2013-04-29 16:52:00,74.0,61.0,29.91,SW,235,5.0,10.0,63,0.00,,,0.43,,2013-04-29 20:52:00,
2013-04-29 17:01:00,74.0,61.0,29.90,SW,221,4.0,9.0,63,0.00,,,0.43,,2013-04-29 21:01:00,
2013-04-29 17:11:00,74.0,61.0,29.90,SW,221,4.0,9.0,63,0.00,,,0.43,,2013-04-29 21:11:00,
2013-04-29 17:21:00,74.0,61.0,29.90,SW,221,4.0,9.0,63,0.00,,,0.43,,2013-04-29 21:21:00,
2013-04-29 17:33:00,74.0,60.0,29.90,WSW,238,4.0,14.0,61,0.00,,,0.31,,2013-04-29 21:33:00,
2013-04-29 17:43:00,74.0,60.0,29.90,WSW,238,4.0,14.0,61,0.00,,,0.31,,2013-04-29 21:43:00,
2013-04-29 17:53:00,73.0,60.0,29.90,SSW,200,6.0,9.0,63,0.00,,,0.31,,2013-04-29 21:53:00,
2013-04-29 18:02:00,73.0,60.0,29.89,SSW,212,8.0,14.0,63,0.00,,,0.31,,2013-04-29 22:02:00,
2013-04-29 18:13:00,73.0,60.0,29.89,SSW,212,8.0,14.0,63,0.00,,,0.31,,2013-04-29 22:13:00,
2013-04-29 18:23:00,73.0,61.0,29.88,SSW,205,6.0,12.0,65,0.00,,,0.31,,2013-04-29 22:23:00,
2013-04-29 18:32:00,73.0,60.0,29.88,SSW,207,5.0,14.0,63,0.00,,,0.25,,2013-04-29 22:32:00,
2013-04-29 18:42:00,73.0,60.0,29.88,SSW,207,5.0,14.0,63,0.00,,,0.25,,2013-04-29 22:42:00,
2013-04-29 18:52:00,73.0,60.0,29.88,SSW,200,4.0,8.0,63,0.00,,,0.25,,2013-04-29 22:52:00,
2013-04-29 19:02:00,73.0,61.0,29.88,WSW,244,2.0,8.0,65,0.00,,,0.25,,2013-04-29 23:02:00,
2013-04-29 19:12:00,73.0,61.0,29.88,WSW,244,2.0,8.0,65,0.00,,,0.25,,2013-04-29 23:12:00,
2013-04-29 19:22:00,72.0,60.0,29.88,SW,225,4.0,8.0,67,0.00,,,0.25,,2013-04-29 23:22:00,
2013-04-29 19:32:00,72.0,61.0,29.89,SW,221,1.0,6.0,68,0.00,,,0.13,,2013-04-29 23:32:00,
2013-04-29 19:42:00,72.0,61.0,29.89,SW,221,1.0,6.0,68,0.00,,,0.13,,2013-04-29 23:42:00,
2013-04-29 19:52:00,72.0,61.0,29.90,SSW,210,4.0,6.0,68,0.00,,,0.13,,2013-04-29 23:52:00,
2013-04-29 20:01:00,71.0,60.0,29.90,SW,235,1.0,3.0,68,0.00,,,0.13,,2013-04-30 00:01:00,
2013-04-29 20:11:00,71.0,60.0,29.90,SW,235,1.0,3.0,68,0.00,,,0.13,,2013-04-30 00:11:00,
2013-04-29 20:21:00,71.0,61.0,29.91,SW,233,0.0,2.0,70,0.00,,,0.13,,2013-04-30 00:21:00,
2013-04-29 20:32:00,70.0,61.0,29.91,SW,233,0.0,3.0,73,0.00,,,0.08,,2013-04-30 00:32:00,
2013-04-29 20:42:00,70.0,61.0,29.91,SW,233,0.0,3.0,73,0.00,,,0.08,,2013-04-30 00:42:00,
2013-04-29 20:51:00,69.0,62.0,29.92,SW,233,0.0,0.0,78,0.00,,,0.08,,2013-04-30 00:51:00,
2013-04-29 21:02:00,67.0,61.0,29.93,SW,233,0.0,0.0,81,0.00,,,0.08,,2013-04-30 01:02:00,
2013-04-29 21:11:00,67.0,61.0,29.93,SW,233,0.0,0.0,81,0.00,,,0.08,,2013-04-30 01:11:00,
2013-04-29 21:22:00,66.0,61.0,29.93,SW,233,0.0,0.0,83,0.00,,,0.08,,2013-04-30 01:22:00,
2013-04-29 21:32:00,65.0,60.0,29.93,SW,233,0.0,0.0,84,0.00,,,0.07,,2013-04-30 01:32:00,
2013-04-29 21:42:00,65.0,60.0,29.93,SW,233,0.0,0.0,84,0.00,,,0.07,,2013-04-30 01:42:00,
2013-04-29 21:51:00,64.0,59.0,29.93,SW,233,0.0,0.0,85,0.00,,,0.07,,2013-04-30 01:51:00,
2013-04-29 22:01:00,63.0,59.0,29.93,SW,233,0.0,2.0,87,0.00,,,0.07,,2013-04-30 02:01:00,
2013-04-29 22:11:00,63.0,59.0,29.93,SW,233,0.0,2.0,87,0.00,,,0.07,,2013-04-30 02:11:00,
2013-04-29 22:21:00,62.0,58.0,29.94,SW,233,0.0,0.0,88,0.00,,,0.07,,2013-04-30 02:21:00,
2013-04-29 22:32:00,61.0,58.0,29.94,SW,233,0.0,0.0,89,0.00,,,0.07,,2013-04-30 02:32:00,
2013-04-29 22:42:00,61.0,58.0,29.94,SW,233,0.0,0.0,89,0.00,,,0.07,,2013-04-30 02:42:00,
2013-04-29 22:51:00,60.0,57.0,29.95,SW,233,0.0,0.0,89,0.00,,,0.07,,2013-04-30 02:51:00,
2013-04-29 23:01:00,60.0,57.0,29.95,SW,233,0.0,0.0,90,0.00,,,0.07,,2013-04-30 03:01:00,
2013-04-29 23:11:00,60.0,57.0,29.95,SW,233,0.0,0.0,90,0.00,,,0.07,,2013-04-30 03:11:00,
2013-04-29 23:21:00,59.0,56.0,29.95,SW,233,0.0,0.0,91,0.00,,,0.07,,2013-04-30 03:21:00,
2013-04-29 23:33:00,59.0,56.0,29.95,SW,233,0.0,0.0,91,0.00,,,0.07,,2013-04-30 03:33:00,
2013-04-29 23:43:00,59.0,56.0,29.95,SW,233,0.0,0.0,91,0.00,,,0.07,,2013-04-30 03:43:00,
2013-04-29 23:52:00,58.0,55.0,29.95,SW,233,0.0,0.0,91,0.00,,,0.07,,2013-04-30 03:52:00,